Regional Weather Roundup
Issued by NWS

Home | Current Version | Previous Version | Text Only | Print | Product List | Glossary On
Versions: 1 2 3 4 5 6 7 8 9 10 11 12 13 14 15 16 17 18 19 20 21 22 23 24 25 26 27 28 29 30 31 32 33 34 35 36 37 38 39 40 41 42 43 44 45 46 47 48 49 50
000
ASUS44 KOUN 210610
RWROK

WEATHER ROUNDUP FOR OKLAHOMA
NATIONAL WEATHER SERVICE NORMAN OK
1200 AM CST SUN DEC 21 2014

NOTE: "FAIR" INDICATES FEW OR NO CLOUDS BELOW 12,000 FEET WITH NO
      SIGNIFICANT WEATHER AND/OR OBSTRUCTIONS TO VISIBILITY.

OKZ001>007-009>012-014-015-017-210700-
NORTHWEST OKLAHOMA AND THE PANHANDLE

CITY           SKY/WX    TMP DP  RH WIND       PRES   REMARKS
GAGE           CLOUDY    41  39  93 S16G26    30.03S
6HR MIN TEMP:  37; 6HR MAX TEMP:  42;

ENID/WOODRING  PTCLDY    41  37  87 S10       30.09F
$$

OKZ016-021>023-033>039-044-045-210700-
SOUTHWEST OKLAHOMA

CITY           SKY/WX    TMP DP  RH WIND       PRES   REMARKS
LAWTON/REGL    CLOUDY    43  39  86 SE9       30.12F
6HR MIN TEMP:  43; 6HR MAX TEMP:  44;

LAWTON/FT SILL CLOUDY    43  39  86 SE9       30.11F
FREDERICK      PTCLDY    39  38  96 E8        30.09S FOG     WCI  33
CLINTON        CLOUDY    40  38  93 S13       30.08F FOG     WCI  32
HOBART         MOCLDY    39  38  96 S9        30.09F WCI  33
ALTUS AFB      CLOUDY    41  41 100 SE8       30.10S
$$

OKZ018>020-024>031-210700-
CENTRAL OKLAHOMA

CITY           SKY/WX    TMP DP  RH WIND       PRES   REMARKS
OKLAHOMA CITY  CLOUDY    42  37  82 S8        30.12F
6HR MIN TEMP:  41; 6HR MAX TEMP:  43;

OKC/WILEY POST CLOUDY    42  37  82 S12       30.13S
OKC/TINKER AFB CLOUDY    40  37  88 S9        30.13F WCI  34
STILLWATER     CLOUDY    42  38  85 S12       30.13F
GUTHRIE        CLOUDY    42  37  82 S7        30.13F
$$

OKZ008-013-054>072-210700-
NORTHEAST OKLAHOMA

CITY           SKY/WX    TMP DP  RH WIND       PRES   REMARKS
TULSA          CLOUDY    43  40  89 S7        30.17F
6HR MIN TEMP:  43; 6HR MAX TEMP:  44; 6HR PCP: TRACE;

TULSA/JONES    CLOUDY    42  39  89 S6        30.18S
PONCA CITY     CLOUDY    43  37  79 S8        30.12S
BARTLESVILLE   CLOUDY    41  36  82 S6        30.16F
MUSKOGEE       CLOUDY    43  41  93 SE6       30.19F FOG
$$

OKZ032-040>043-046>053-073>077-210700-
SOUTH CENTRAL/SOUTHEAST OKLAHOMA

CITY           SKY/WX    TMP DP  RH WIND       PRES   REMARKS
ARDMORE/DWNTWN CLOUDY    43  41  93 CALM      30.17F
MCALESTER      CLOUDY    45  43  93 SW5       30.18F
$$



USA.gov is the U.S. government's official web portal to all federal, state and local government web resources and services.